Total_Precipitation_Accumulation
2.04 1.58 1.03 0.61 0.50 0.47 0.43 0.54 0.65 0.65 0.64 0.69 0.71 0.60 0.58 0.53 0.52 0.55 0.53 0.58 0.73 0.93 1.15 1.29 1.46 1.67 1.86 1.87 1.92 2.08 2.21 2.31 2.42 2.52 2.48 2.35 2.30 2.25 2.17 2.02 1.86 1.72 1.65 1.68
1.72 1.17 0.54 0.40 0.42 0.42 0.42 0.49 0.56 0.58 0.58 0.68 0.72 0.65 0.58 0.59 0.57 0.55 0.52 0.53 0.67 0.84 1.01 1.18 1.35 1.51 1.67 1.78 1.86 2.04 2.20 2.26 2.24 2.35 2.49 2.40 2.42 2.41 2.41 2.36 2.18 2.00 1.88 1.82
1.33 0.79 0.44 0.46 0.51 0.45 0.37 0.40 0.47 0.53 0.58 0.72 0.81 0.80 0.62 0.59 0.57 0.50 0.48 0.53 0.67 0.83 0.93 1.06 1.21 1.33 1.46 1.65 1.88 2.01 2.11 2.21 2.24 2.45 2.86 2.80 2.66 2.58 2.53 2.47 2.38 2.24 2.12 2.03
1.18 0.68 0.51 0.51 0.45 0.41 0.39 0.31 0.40 0.48 0.69 0.85 0.85 1.06 0.70 0.65 0.63 0.53 0.48 0.53 0.68 0.79 0.83 0.94 1.15 1.23 1.30 1.46 1.73 2.01 2.14 2.27 2.44 2.64 2.85 2.88 2.63 2.43 2.39 2.39 2.41 2.41 2.21 2.13
1.12 0.77 0.62 0.57 0.42 0.38 0.40 0.30 0.38 0.47 0.61 0.76 0.64 0.83 0.76 0.61 0.64 0.64 0.60 0.61 0.73 0.81 0.86 0.92 1.12 1.22 1.22 1.32 1.49 1.76 2.04 2.16 2.41 2.59 2.68 2.83 2.64 2.37 2.39 2.38 2.35 2.40 2.32 2.14
0.78 0.66 0.70 0.58 0.40 0.39 0.40 0.40 0.47 0.55 0.69 0.79 0.54 0.66 0.76 0.68 0.68 0.68 0.68 0.75 0.84 0.88 0.89 0.95 1.10 1.11 1.09 1.15 1.28 1.44 1.67 1.81 1.94 2.15 2.36 2.53 2.55 2.48 2.39 2.26 2.21 2.21 2.20 2.16
0.92 0.75 0.62 0.53 0.53 0.46 0.48 0.67 0.91 1.01 0.91 0.67 0.44 0.51 0.73 0.67 0.61 0.63 0.71 0.78 0.82 0.84 0.82 0.91 1.01 0.96 0.93 0.98 1.09 1.22 1.34 1.47 1.58 1.72 1.93 2.13 2.26 2.36 2.37 2.28 2.18 2.11 2.00 1.95
0.93 1.01 0.60 0.49 0.51 0.50 0.44 0.57 0.78 0.81 0.55 0.42 0.31 0.47 0.66 0.64 0.63 0.61 0.69 0.69 0.69 0.71 0.76 0.89 1.05 1.00 0.91 0.91 0.93 0.97 1.09 1.27 1.38 1.43 1.60 1.74 1.81 1.88 1.93 2.00 1.99 1.97 1.89 1.83
0.57 0.66 0.41 0.32 0.28 0.32 0.43 0.40 0.37 0.64 0.44 0.33 0.34 0.45 0.58 0.58 0.58 0.59 0.63 0.61 0.59 0.63 0.74 0.86 0.92 0.89 0.83 0.83 0.83 0.84 0.94 1.09 1.15 1.17 1.27 1.32 1.38 1.43 1.49 1.56 1.60 1.60 1.65 1.69
0.33 0.45 0.35 0.26 0.25 0.26 0.26 0.26 0.37 0.71 0.66 0.42 0.31 0.37 0.59 0.60 0.60 0.58 0.56 0.54 0.54 0.60 0.67 0.70 0.70 0.67 0.67 0.73 0.79 0.79 0.84 0.90 0.91 0.93 0.99 1.00 1.01 1.07 1.16 1.26 1.25 1.24 1.30 1.39
0.20 0.33 0.32 0.26 0.30 0.25 0.21 0.26 0.35 0.51 0.49 0.46 0.33 0.41 0.45 0.50 0.54 0.53 0.50 0.48 0.48 0.52 0.53 0.53 0.50 0.50 0.54 0.58 0.62 0.63 0.67 0.73 0.74 0.71 0.73 0.77 0.79 0.83 0.93 1.04 1.12 1.15 1.15 1.14
0.16 0.27 0.28 0.20 0.12 0.10 0.13 0.20 0.34 0.58 0.45 0.37 0.34 0.38 0.34 0.36 0.39 0.39 0.38 0.38 0.38 0.41 0.41 0.43 0.43 0.43 0.44 0.46 0.48 0.54 0.58 0.63 0.62 0.56 0.57 0.60 0.64 0.67 0.73 0.82 0.89 0.95 1.00 1.03
0.24 0.35 0.39 0.31 0.22 0.15 0.17 0.19 0.25 0.46 0.67 0.47 0.41 0.41 0.33 0.30 0.29 0.28 0.31 0.32 0.32 0.30 0.29 0.31 0.31 0.33 0.34 0.39 0.42 0.46 0.47 0.48 0.49 0.48 0.51 0.52 0.52 0.54 0.58 0.62 0.68 0.70 0.76 0.86
0.32 0.31 0.31 0.30 0.22 0.26 0.28 0.17 0.21 0.63 0.85 0.38 0.21 0.27 0.27 0.25 0.25 0.27 0.30 0.29 0.26 0.24 0.21 0.21 0.21 0.20 0.23 0.28 0.32 0.33 0.34 0.37 0.42 0.44 0.45 0.48 0.46 0.48 0.50 0.51 0.54 0.55 0.57 0.59
0.25 0.27 0.15 0.12 0.13 0.26 0.28 0.19 0.22 0.41 0.35 0.34 0.19 0.16 0.19 0.18 0.20 0.24 0.25 0.22 0.18 0.17 0.15 0.13 0.14 0.15 0.17 0.21 0.25 0.26 0.30 0.35 0.42 0.42 0.40 0.41 0.43 0.44 0.43 0.43 0.43 0.41 0.41 0.42
0.25 0.28 0.16 0.11 0.08 0.15 0.19 0.13 0.12 0.14 0.15 0.16 0.13 0.15 0.13 0.16 0.21 0.23 0.22 0.19 0.17 0.16 0.14 0.11 0.11 0.11 0.13 0.18 0.27 0.32 0.37 0.40 0.40 0.42 0.39 0.39 0.40 0.41 0.41 0.38 0.34 0.34 0.35 0.38
0.21 0.27 0.35 0.18 0.05 0.16 0.23 0.14 0.12 0.11 0.12 0.15 0.19 0.17 0.14 0.20 0.27 0.30 0.24 0.17 0.15 0.14 0.13 0.11 0.10 0.11 0.14 0.23 0.38 0.51 0.58 0.54 0.49 0.48 0.44 0.39 0.39 0.40 0.41 0.41 0.41 0.41 0.40 0.41
0.19 0.29 0.52 0.34 0.18 0.33 0.24 0.12 0.09 0.10 0.14 0.17 0.17 0.14 0.15 0.18 0.22 0.23 0.17 0.12 0.12 0.12 0.11 0.11 0.11 0.13 0.18 0.27 0.40 0.50 0.59 0.63 0.61 0.60 0.58 0.51 0.52 0.54 0.56 0.59 0.60 0.59 0.59 0.60
0.11 0.33 0.64 0.54 0.35 0.20 0.14 0.09 0.13 0.17 0.18 0.16 0.15 0.11 0.10 0.11 0.15 0.16 0.12 0.09 0.10 0.11 0.12 0.11 0.11 0.15 0.21 0.27 0.34 0.46 0.57 0.61 0.66 0.75 0.81 0.79 0.78 0.80 0.84 0.88 0.91 0.89 0.86 0.86
0.11 0.29 0.70 0.66 0.53 0.23 0.15 0.08 0.10 0.16 0.26 0.13 0.12 0.11 0.09 0.11 0.20 0.17 0.12 0.11 0.11 0.12 0.12 0.13 0.13 0.16 0.23 0.31 0.42 0.58 0.71 0.75 0.78 0.86 0.93 0.90 0.90 0.90 0.90 0.91 0.91 0.88 0.84 0.82
0.22 0.44 0.66 0.57 0.52 0.23 0.14 0.07 0.10 0.28 0.30 0.11 0.10 0.12 0.13 0.17 0.21 0.15 0.13 0.15 0.18 0.19 0.19 0.21 0.24 0.30 0.39 0.47 0.61 0.83 0.93 0.90 0.85 0.84 0.81 0.75 0.72 0.68 0.64 0.61 0.59 0.57 0.54 0.53
0.19 0.32 0.38 0.44 0.58 0.35 0.13 0.11 0.21 0.27 0.14 0.09 0.09 0.11 0.15 0.14 0.11 0.11 0.11 0.13 0.20 0.25 0.25 0.28 0.35 0.43 0.50 0.52 0.60 0.69 0.70 0.67 0.63 0.57 0.50 0.43 0.41 0.40 0.39 0.39 0.36 0.32 0.31 0.30
0.19 0.25 0.32 0.36 0.35 0.22 0.14 0.15 0.16 0.14 0.13 0.10 0.13 0.13 0.13 0.12 0.10 0.10 0.11 0.11 0.15 0.19 0.20 0.22 0.25 0.26 0.29 0.29 0.32 0.33 0.31 0.30 0.31 0.28 0.24 0.20 0.19 0.20 0.22 0.23 0.23 0.19 0.18 0.19
0.19 0.16 0.24 0.25 0.19 0.14 0.12 0.10 0.09 0.10 0.14 0.13 0.14 0.13 0.13 0.15 0.11 0.10 0.12 0.11 0.13 0.15 0.16 0.18 0.19 0.17 0.18 0.17 0.16 0.16 0.15 0.18 0.20 0.20 0.18 0.16 0.15 0.15 0.17 0.19 0.20 0.21 0.20 0.20
0.19 0.20 0.25 0.24 0.14 0.12 0.11 0.10 0.11 0.11 0.09 0.09 0.08 0.08 0.11 0.14 0.13 0.13 0.15 0.14 0.14 0.16 0.17 0.19 0.20 0.19 0.17 0.16 0.16 0.16 0.16 0.17 0.19 0.20 0.20 0.20 0.18 0.17 0.19 0.21 0.23 0.26 0.25 0.27
0.17 0.24 0.36 0.30 0.15 0.21 0.16 0.11 0.11 0.13 0.10 0.09 0.09 0.09 0.10 0.12 0.14 0.13 0.13 0.14 0.15 0.17 0.19 0.21 0.20 0.20 0.18 0.18 0.18 0.19 0.20 0.21 0.24 0.24 0.24 0.25 0.26 0.24 0.25 0.25 0.27 0.31 0.33 0.35